Regional Weather Roundup
Issued by NWS

Home | Current Version | Previous Version | Text Only | Print | Product List | Glossary Off
Versions: 1 2 3 4 5 6 7 8 9 10 11 12 13 14 15 16 17 18 19 20 21 22 23 24 25 26 27 28 29 30 31 32 33 34 35 36 37 38 39 40 41 42 43 44 45 46 47 48 49 50

000
ASUS45 KBOU 230907
RWRCO

WEATHER ROUNDUP FOR COLORADO
NATIONAL WEATHER SERVICE DENVER/BOULDER CO
300 AM MDT TUE MAY 23 2017

NOTE: "FAIR" INDICATES FEW OR NO CLOUDS BELOW 12000 FEET WITH NO
SIGNIFICANT WEATHER AND/OR OBSTRUCTIONS TO VISIBILITY.

COZ001>005-013-030-031-231000-
...NORTHWEST COLORADO...

CITY           SKY/WX    TMP DP  RH WIND       PRES   REMARKS
CRAIG          CLOUDY    33  30  88 W3        30.34F
HAYDEN         FAIR      34  28  80 NW3       30.33S
MEEKER         FAIR      36  33  89 CALM      30.33S
RABBIT EARS PA CLOUDY    27  25  93 N6        30.35F WCI  20
STEAMBOAT SPGS CLOUDY    35  34  95 CALM      30.33S
WALDEN           N/A     30  28  93 CALM      30.34F
$$

COZ006>008-011-231000-
...WEST CENTRAL VALLEYS...

CITY           SKY/WX    TMP DP  RH WIND       PRES   REMARKS
GRAND JUNCTION FAIR      49  34  56 NW7       30.24F
MONTROSE       FAIR      48  46  93 S3        30.27F
EAGLE          FAIR      36  34  92 CALM      30.34F
RIFLE          FAIR      45  36  70 CALM      30.29S
DELTA          FAIR      53  42  65 CALM      30.23S
NUCLA          FAIR      52  34  50 CALM      30.27S
$$

COZ017>023-064>068-231000-
...SOUTHWEST COLORADO...

CITY           SKY/WX    TMP DP  RH WIND       PRES   REMARKS
DURANGO        CLOUDY    52  28  39 N20G26    30.17R
CORTEZ         FAIR      44  34  67 NE6       30.18R
PAGOSA SPRINGS CLOUDY    49  28  44 N6        30.21S
TELLURIDE      CLOUDY    38  37  97 CALM      30.34F
WOLF CREEK PAS MOCLDY    27  27 100 N6        30.39F WCI  20
$$

COZ009-010-012-014-032>034-037-058>063-231000-
...CENTRAL COLORADO...

CITY           SKY/WX    TMP DP  RH WIND       PRES   REMARKS
ASPEN          MOCLDY    35  34  96 CALM      30.30S
BUENA VISTA    FAIR      37  29  74 E6        30.26S
COPPER MTN     SNOW      25  19  80 MISG      30.34S VSB 1/2
BERTHOUD PASS  CLOUDY    18   7  62 MISG      30.31F
COTTONWOOD PAS FAIR      32  30  93 CALM      30.29S
GUNNISON       FAIR      36  34  92 CALM      30.25F
KREMMLING      MOCLDY    37  36  93 CALM      30.34S
LEADVILLE      FAIR      26  21  81 N10       30.30F WCI  16
MONARCH PASS   FAIR      27  21  80 W10       30.43S WCI  17
SALIDA         CLOUDY    39  36  87 CALM      30.35R
SUNLIGHT       FAIR      25  23  93 CALM      30.40F
WILKERSON PASS CLOUDY    23  21  93 N9G16     30.33S WCI  13
$$

COZ069>075-231000-
...SAN LUIS VALLEY/SANGRE DE CRISTO MOUNTAINS...

CITY           SKY/WX    TMP DP  RH WIND       PRES   REMARKS
ALAMOSA        CLOUDY    44  38  79 N3        30.20F
DEL NORTE      FAIR      42  32  67 W10       30.22F
LA VETA PASS   SNOW      27  23  86 MISG      30.40S VSB 1/4
SAGUACHE       LGT RAIN  36  34  93 W8        30.25F
$$

COZ035-036-038>040-231000-
...NORTHERN COLORADO FRONT RANGE...

CITY           SKY/WX    TMP DP  RH WIND       PRES   REMARKS
DENVER INTL AP MOCLDY    43  37  79 N7        30.24R
DMNS CITY PARK   N/A     42  38  86 W1G7      30.24F
AURORA         MOCLDY    40  38  93 W5        30.25S
FRONT RANGE AP CLOUDY    45  37  76 N9        30.24S
ERIE MUNI ARPT FAIR      41  39  91 CALM      30.24F
BOULDER MUN AP FAIR      43  37  81 W5        30.24F
CENTENNIAL     FAIR      40  37  89 W6        30.24F
BROOMFIELD     FAIR      43  36  75 NW3       30.25F
FORT COLLINS   FAIR      42  36  79 N7        30.24F
LONGMONT       FAIR      40  37  86 CALM      30.25F
$$

COZ041-046-047-076>085-087-088-231000-
...PIKES PEAK/PALMER DIVIDE AND SOUTHERN FOOTHILLS...

CITY           SKY/WX    TMP DP  RH WIND       PRES   REMARKS
COLO. SPRINGS  FAIR      42  32  67 NW10      30.24S
A. F. ACADEMY  FAIR      38  32  80 N9        30.23F
SCHRIEVER AFB  FAIR      40  33  75 NW7       30.23F
CHEYENNE MTN   MOCLDY    41  26  57 NW14G22   30.18R
ELLICOTT       FAIR       1 N/A N/A N13       30.21F WCI -17
FALCON         FAIR      37  32  81 N10G18    30.23S
FORT CARSON    FAIR      43  32  65 NW13      30.23R
LIMON          FAIR      38  35  89 NW15      30.21R
MONUMENT HILL  FAIR      32  32 100 NW7       30.26F WCI  26
CANON CITY     NOT AVBL
WALSENBURG     CLOUDY    41  39  93 W12       30.27S
TRINIDAD       CLOUDY    38  35  89 W10       30.25F
$$

COZ042>045-048>051-090-091-231000-
...NORTHEAST COLORADO...

CITY           SKY/WX    TMP DP  RH WIND       PRES   REMARKS
GREELEY ARPT   MOCLDY    45  37  73 NW12      30.23F
AKRON          FAIR      37  33  85 NW8       30.18F
BURLINGTON     FAIR      41  38  89 NW12      30.15S
WRAY           FAIR      41  37  87 NW7       30.15S
YUMA           FAIR      37  36  93 NW10      30.16F
STERLING       FAIR      37  36  93 NW9       30.17S
HOLYOKE        NOT AVBL
FORT MORGAN    FAIR      41  35  79 NW13      30.21S
$$

COZ086-089-092>099-231000-
...SOUTHEAST COLORADO...

CITY           SKY/WX    TMP DP  RH WIND       PRES   REMARKS
PUEBLO         FAIR      48  42  80 NW3       30.22S
LA JUNTA       FAIR      45  41  86 W12       30.20R
LAMAR          FAIR      48  39  71 NW9       30.16S
SPRINGFIELD      N/A     44  39  82 NW12      30.17S
$$



USA.gov is the U.S. government's official web portal to all federal, state and local government web resources and services.